Terminal Aerodrome Forecast
Issued by NWS St Louis, MO

Home | Current Version | Previous Version | Text Only | Print | Product List | Glossary On
Versions: 1 2 3 4 5 6 7 8 9 10 11 12 13 14 15 16 17 18 19 20 21 22 23 24 25 26 27
000
FTUS43 KLSX 270500
TAFSTL
TAF
KSTL 270520Z 2706/2812 VRB04KT P6SM SCT120
     FM271000 21007KT P6SM VCTS BKN050CB
     FM271200 30010KT P6SM SCT040
     FM271900 32012KT P6SM SCT040=

USA.gov is the U.S. government's official web portal to all federal, state and local government web resources and services.